Location: Peterborough
(44.3091°N, 78.3197°W)
Time: 13:03:48
(UTC-04:00)

Transit 2A - Pass Details

Date: 25 March 2023
Orbit: 591 x 964 km, 66.7° (Epoch: 27 May)

Event Time Altitude Azimuth Distance (km) Brightness Sun altitude
Rises 14:28:21 0° 329° (NNW) 3,630 9.2 44.9°
Reaches altitude 10° 14:30:56 10° 333° (NNW) 2,699 8.7 44.8°
Maximum altitude 14:37:17 63° 54° (NE) 1,070 7.1 44.2°
Drops below altitude 10° 14:43:29 10° 135° (SE) 2,647 9.1 43.7°
Sets 14:46:00 0° 139° (SE) 3,555 9.6 43.5°
